When you browse on this site, cookies collect data to enhance your experience and personalize the content and advertising you see.
Visit our Privacy Policy to learn more. By continuing to use the site, you agree to this use of cookies and data.
  • In France
  • List of Countries
  • For 7 days
  • Water Temperature
  • Weather Map
  • Weather Widgets
  • user-avatar
    Login

    Hourly Weather Ljubljana

    Today, 31 May, Sunday

    Time Temperature Precipitation Wind Pressure Humidity
    00:00 +3°C° 0 mm 0 mps 667 mmHg 93%
    01:00 +3°C° 0 mm 1 mps 667 mmHg 92%
    02:00 +3°C° 0 mm 1 mps 667 mmHg 93%
    03:00 +2°C° 0 mm 1 mps 667 mmHg 94%
    04:00 +2°C° 0 mm 1 mps 666 mmHg 94%
    05:00 +4°C° 0 mm 1 mps 667 mmHg 91%
    06:00 +5°C° 0 mm 1 mps 667 mmHg 87%
    07:00 +7°C° 0 mm 1 mps 667 mmHg 84%
    08:00 +9°C° 0 mm 1 mps 668 mmHg 73%
    09:00 +11°C° 0 mm 1 mps 668 mmHg 62%
    10:00 +13°C° 0 mm 1 mps 668 mmHg 51%
    11:00 +14°C° 0 mm 1 mps 668 mmHg 49%
    12:00 +14°C° 0 mm 1 mps 668 mmHg 47%
    13:00 +14°C° 0 mm 1 mps 668 mmHg 46%
    14:00 +14°C° 0.1 mm 1 mps 668 mmHg 50%
    15:00 +13°C° 0.1 mm 1 mps 668 mmHg 53%
    16:00 +13°C° 0.1 mm 1 mps 668 mmHg 57%
    17:00 +12°C° 0.1 mm 1 mps 668 mmHg 64%
    18:00 +11°C° 0.1 mm 1 mps 667 mmHg 70%
    19:00 +10°C° 0.1 mm 1 mps 667 mmHg 76%
    20:00 +9°C° 0 mm 1 mps 667 mmHg 77%
    21:00 +8°C° 0 mm 1 mps 668 mmHg 78%
    22:00 +7°C° 0 mm 1 mps 668 mmHg 79%
    23:00 +7°C° 0.1 mm 1 mps 668 mmHg 82%

    Tomorrow, 1 June, Monday

    Time Temperature Precipitation Wind Pressure Humidity
    00:00 +6°C° 0.1 mm 1 mps 668 mmHg 84%
    01:00 +6°C° 0.1 mm 1 mps 668 mmHg 87%
    02:00 +6°C° 0 mm 1 mps 667 mmHg 87%
    03:00 +6°C° 0 mm 1 mps 667 mmHg 87%
    04:00 +6°C° 0 mm 1 mps 667 mmHg 88%
    05:00 +7°C° 0 mm 1 mps 668 mmHg 82%
    06:00 +9°C° 0 mm 1 mps 668 mmHg 76%
    07:00 +11°C° 0 mm 1 mps 669 mmHg 70%
    08:00 +13°C° 0 mm 1 mps 669 mmHg 62%
    09:00 +15°C° 0 mm 1 mps 670 mmHg 53%
    10:00 +18°C° 0 mm 1 mps 670 mmHg 44%
    11:00 +19°C° 0 mm 1 mps 670 mmHg 42%
    12:00 +20°C° 0 mm 1 mps 670 mmHg 40%
    13:00 +20°C° 0 mm 1 mps 670 mmHg 38%
    14:00 +19°C° 0 mm 2 mps 670 mmHg 40%
    15:00 +19°C° 0 mm 2 mps 670 mmHg 41%
    16:00 +19°C° 0 mm 2 mps 670 mmHg 43%
    17:00 +18°C° 0.1 mm 1 mps 669 mmHg 54%
    18:00 +15°C° 0.1 mm 1 mps 669 mmHg 65%
    19:00 +13°C° 0.1 mm 1 mps 668 mmHg 75%
    20:00 +12°C° 0 mm 1 mps 668 mmHg 78%
    21:00 +11°C° 0 mm 1 mps 668 mmHg 81%
    22:00 +10°C° 0 mm 1 mps 669 mmHg 84%
    23:00 +8°C° 0 mm 0 mps 668 mmHg 85%

    Day after tomorrow, 2 June, Tuesday

    Time Temperature Precipitation Wind Pressure Humidity
    00:00 +8°C° 0 mm 0 mps 668 mmHg 86%
    01:00 +7°C° 0 mm 0 mps 668 mmHg 88%
    02:00 +7°C° 0 mm 0 mps 668 mmHg 90%
    03:00 +6°C° 0 mm 0 mps 667 mmHg 91%
    04:00 +6°C° 0 mm 0 mps 667 mmHg 93%
    05:00 +7°C° 0 mm 0 mps 667 mmHg 87%
    06:00 +9°C° 0 mm 0 mps 668 mmHg 82%
    07:00 +11°C° 0 mm 0 mps 668 mmHg 77%
    08:00 +13°C° 0 mm 1 mps 668 mmHg 70%
    09:00 +15°C° 0 mm 1 mps 669 mmHg 63%
    10:00 +18°C° 0 mm 1 mps 669 mmHg 56%
    11:00 +18°C° 0.2 mm 1 mps 669 mmHg 55%
    12:00 +19°C° 0.2 mm 1 mps 668 mmHg 54%
    13:00 +20°C° 0.2 mm 1 mps 668 mmHg 53%
    14:00 +19°C° 0.6 mm 1 mps 668 mmHg 58%
    15:00 +18°C° 0.6 mm 1 mps 667 mmHg 63%
    16:00 +18°C° 0.6 mm 1 mps 667 mmHg 67%
    17:00 +15°C° 0.8 mm 1 mps 666 mmHg 74%
    18:00 +14°C° 0.8 mm 1 mps 666 mmHg 81%
    19:00 +12°C° 0.8 mm 1 mps 665 mmHg 88%
    20:00 +11°C° 0.2 mm 1 mps 665 mmHg 90%
    21:00 +9°C° 0.2 mm 1 mps 665 mmHg 91%
    22:00 +8°C° 0.2 mm 1 mps 665 mmHg 92%
    23:00 +8°C° 0 mm 1 mps 664 mmHg 93%

    3 June, Wednesday

    Time Temperature Precipitation Wind Pressure Humidity
    00:00 +6°C° 0 mm 0 mps 664 mmHg 93%
    01:00 +6°C° 0 mm 0 mps 664 mmHg 94%
    02:00 +5°C° 0 mm 0 mps 664 mmHg 94%
    03:00 +5°C° 0 mm 0 mps 663 mmHg 94%
    04:00 +6°C° 0 mm 1 mps 663 mmHg 95%
    05:00 +7°C° 0 mm 0 mps 663 mmHg 92%
    06:00 +8°C° 0 mm 0 mps 664 mmHg 89%
    07:00 +10°C° 0 mm 0 mps 664 mmHg 87%
    08:00 +12°C° 0.1 mm 0 mps 664 mmHg 79%
    09:00 +14°C° 0.1 mm 0 mps 665 mmHg 71%
    10:00 +16°C° 0.1 mm 0 mps 665 mmHg 63%
    11:00 +18°C° 0.5 mm 1 mps 665 mmHg 65%
    12:00 +18°C° 0.5 mm 1 mps 664 mmHg 66%
    13:00 +17°C° 0.5 mm 2 mps 664 mmHg 67%
    14:00 +17°C° 0.4 mm 2 mps 664 mmHg 67%
    15:00 +17°C° 0.4 mm 2 mps 664 mmHg 66%
    16:00 +17°C° 0.4 mm 2 mps 663 mmHg 66%
    17:00 +16°C° 0.3 mm 2 mps 663 mmHg 73%
    18:00 +14°C° 0.3 mm 1 mps 662 mmHg 81%
    19:00 +13°C° 0.3 mm 1 mps 662 mmHg 88%
    20:00 +12°C° 0 mm 1 mps 662 mmHg 91%
    21:00 +10°C° 0 mm 1 mps 662 mmHg 93%
    22:00 +9°C° 0 mm 1 mps 662 mmHg 95%
    23:00 +9°C° 0 mm 1 mps 662 mmHg 95%

    4 June, Thursday

    Time Temperature Precipitation Wind Pressure Humidity
    00:00 +9°C° 0 mm 1 mps 661 mmHg 96%
    01:00 +8°C° 0 mm 1 mps 661 mmHg 96%
    02:00 +8°C° 0 mm 1 mps 661 mmHg 96%
    03:00 +8°C° 0 mm 1 mps 661 mmHg 96%
    04:00 +8°C° 0 mm 1 mps 661 mmHg 96%
    05:00 +10°C° 0 mm 1 mps 661 mmHg 93%
    06:00 +11°C° 0 mm 1 mps 661 mmHg 90%
    07:00 +12°C° 0 mm 1 mps 662 mmHg 87%
    08:00 +14°C° 0 mm 1 mps 662 mmHg 80%
    09:00 +15°C° 0 mm 2 mps 663 mmHg 73%
    10:00 +17°C° 0 mm 2 mps 663 mmHg 65%
    11:00 +17°C° 0.1 mm 3 mps 663 mmHg 65%
    12:00 +17°C° 0.1 mm 3 mps 663 mmHg 64%
    13:00 +18°C° 0.1 mm 4 mps 662 mmHg 64%
    14:00 +17°C° 0.2 mm 4 mps 662 mmHg 68%
    15:00 +16°C° 0.2 mm 3 mps 661 mmHg 73%
    16:00 +14°C° 0.2 mm 3 mps 661 mmHg 77%
    17:00 +13°C° 0.1 mm 3 mps 661 mmHg 81%
    18:00 +13°C° 0.1 mm 2 mps 660 mmHg 85%
    19:00 +12°C° 0.1 mm 2 mps 660 mmHg 88%
    20:00 +12°C° 0.5 mm 2 mps 661 mmHg 91%
    21:00 +12°C° 0.5 mm 1 mps 661 mmHg 94%
    22:00 +12°C° 0.5 mm 1 mps 661 mmHg 96%
    23:00 +11°C° 0.4 mm 1 mps 661 mmHg 97%

    5 June, Friday

    Time Temperature Precipitation Wind Pressure Humidity
    00:00 +11°C° 0.4 mm 1 mps 661 mmHg 97%
    01:00 +10°C° 0.4 mm 0 mps 662 mmHg 98%
    02:00 +10°C° 0.2 mm 0 mps 662 mmHg 98%
    03:00 +10°C° 0.2 mm 0 mps 662 mmHg 98%
    04:00 +10°C° 0.2 mm 0 mps 662 mmHg 98%
    05:00 +11°C° 0 mm 0 mps 662 mmHg 97%
    06:00 +12°C° 0 mm 1 mps 663 mmHg 96%
    07:00 +13°C° 0 mm 1 mps 663 mmHg 95%
    08:00 +14°C° 0.1 mm 1 mps 663 mmHg 89%
    09:00 +15°C° 0.1 mm 2 mps 664 mmHg 83%
    10:00 +17°C° 0.1 mm 2 mps 664 mmHg 76%
    11:00 +18°C° 0.1 mm 2 mps 665 mmHg 71%
    12:00 +18°C° 0.1 mm 3 mps 665 mmHg 66%
    13:00 +19°C° 0.1 mm 3 mps 665 mmHg 61%
    14:00 +19°C° 0.1 mm 3 mps 665 mmHg 62%
    15:00 +19°C° 0.1 mm 3 mps 664 mmHg 63%
    16:00 +19°C° 0.1 mm 3 mps 664 mmHg 64%
    17:00 +17°C° 0 mm 3 mps 664 mmHg 71%
    18:00 +16°C° 0 mm 2 mps 664 mmHg 78%
    19:00 +15°C° 0 mm 2 mps 663 mmHg 84%
    20:00 +14°C° 0 mm 2 mps 663 mmHg 88%
    21:00 +13°C° 0 mm 2 mps 663 mmHg 92%
    22:00 +11°C° 0 mm 1 mps 663 mmHg 96%
    23:00 +12°C° 0.1 mm 1 mps 663 mmHg 96%
    Show more